Weather observations for the past three days for
Fresno, Fresno Air Terminal
Imperial (Metric)
Date Time (pdt) Wind (mph) Vis. (mi.) Weather Sky Cond. Temperature (ºF) Relative Humidity Wind Chill (°F) Heat Index (°F) Pressure Precipitation (in)
Air Dwpt 6 hour altimeter (in) sea level (mb) 1 hr 3 hr 6 hr
Max. Min.
18 13:53 Calm 10.00 Partly Cloudy FEW050 FEW120 SCT180 95 52 23% 92 29.94 1013.4
18 12:53 SW 6 10.00 Partly Cloudy FEW120 SCT150 SCT200 93 52 25% 90 29.95 1013.8
18 11:53 Calm 10.00 Mostly Cloudy FEW120 BKN150 BKN200 87.1 51.1 29% 85 29.96 1014.0
18 10:53 SE 10 10.00 Mostly Cloudy FEW120 BKN160 BKN200 82.9 52 84 72 34% 82 29.97 1014.2
18 09:53 S 7 10.00 Mostly Cloudy FEW120 BKN160 BKN200 82 53.1 37% 81 29.96 1014.2
18 08:53 SE 7 10.00 Mostly Cloudy FEW120 BKN160 BKN200 79 53.1 41% 79 29.96 1014.1
18 07:53 Calm 10.00 Mostly Cloudy FEW120 BKN150 BKN200 75 52 45% 78 29.96 1014.0
18 06:53 N 3 10.00 Mostly Cloudy FEW120 BKN150 BKN200 72 52 50% 29.94 1013.3
18 05:53 Calm 10.00 Mostly Cloudy SCT120 BKN180 72 53.1 52% 29.93 1013.2
18 04:53 Calm 10.00 A Few Clouds FEW120 FEW200 72 52 82.9 72 50% 29.93 1012.9
18 03:53 NW 6 10.00 A Few Clouds FEW200 72 53.1 52% 29.91 1012.3
18 02:53 NW 5 10.00 A Few Clouds FEW200 73.9 52 46% 29.91 1012.3
18 01:53 NW 10 10.00 Partly Cloudy SCT200 75.9 52 43% 78 29.91 1012.3
18 00:53 NW 10 10.00 Partly Cloudy FEW130 SCT200 79 51.1 38% 79 29.91 1012.4
17 23:53 NW 9 10.00 Mostly Cloudy SCT130 BKN200 80.1 48.9 34% 79 29.91 1012.5
17 22:53 NW 14 10.00 Partly Cloudy FEW130 SCT200 82.9 48 98.1 82.9 30% 81 29.91 1012.4
17 21:53 NW 15 10.00 Partly Cloudy FEW130 SCT200 84.9 50 30% 83 29.91 1012.4
17 20:53 NW 15 10.00 Partly Cloudy FEW080 SCT130 SCT200 88 48 25% 85 29.89 1011.9
17 19:53 NW 12 10.00 Partly Cloudy FEW080 SCT130 SCT200 91.9 45 20% 88 29.88 1011.6
17 18:53 NW 14 10.00 Partly Cloudy FEW080 FEW130 SCT200 96.1 45 17% 92 29.88 1011.4
17 17:53 NW 13 10.00 Partly Cloudy FEW080 FEW130 SCT200 98.1 46.9 17% 94 29.88 1011.5
17 16:53 NW 12 G 20 10.00 A Few Clouds FEW080 FEW200 98.1 48 98.1 80.1 18% 95 29.89 1011.7
17 15:53 NW 13 G 21 10.00 A Few Clouds FEW080 FEW200 96.1 54 24% 94 29.91 1012.5
17 14:53 Vrbl 6 10.00 A Few Clouds FEW080 FEW200 93.9 54 26% 92 29.94 1013.3
17 13:53 W 8 10.00 A Few Clouds FEW080 FEW200 91.9 53.1 27% 89 29.96 1013.9
17 12:53 NW 8 10.00 A Few Clouds FEW080 88 55 33% 86 29.97 1014.6
17 11:53 Vrbl 7 10.00 A Few Clouds FEW080 84 54 36% 83 29.99 1015.0
17 10:53 Vrbl 3 10.00 A Few Clouds FEW080 FEW200 80.1 54 80.1 64 41% 80 30 1015.4
17 09:53 SW 6 10.00 A Few Clouds FEW200 75.9 53.1 45% 78 30 1015.6
17 08:53 Calm 10.00 Fair CLR 70 52 53% 30 1015.7
17 07:53 Calm 10.00 Fair CLR 66 53.1 63% 30 1015.4
17 06:53 NW 7 10.00 A Few Clouds FEW200 64.9 52 63% 29.98 1014.7
17 05:53 NW 9 10.00 A Few Clouds FEW110 FEW200 64 52 65% 29.96 1014.0
17 04:53 NW 9 10.00 A Few Clouds FEW130 FEW200 66 51.1 82 66 59% 29.95 1013.8
17 03:53 NW 12 10.00 A Few Clouds FEW200 66.9 52 59% 29.94 1013.4
17 02:53 NW 13 10.00 A Few Clouds FEW200 69.1 51.1 53% 29.93 1013.2
17 01:53 NW 13 10.00 A Few Clouds FEW200 72 51.1 48% 29.92 1012.8
17 00:53 NW 14 10.00 A Few Clouds FEW200 75 53.1 46% 78 29.92 1012.8
16 23:53 NW 13 10.00 A Few Clouds FEW200 79 55 44% 80 29.91 1012.5
16 22:53 NW 13 10.00 Fair CLR 82 55.9 100.9 82 41% 82 29.9 1012.2
16 21:53 NW 14 10.00 Fair CLR 86 57.9 39% 85 29.9 1011.9
16 20:53 NW 14 10.00 A Few Clouds FEW050 FEW200 89.1 57.9 35% 88 29.88 1011.4
16 19:53 NW 14 10.00 A Few Clouds FEW120 FEW200 93 61 34% 93 29.87 1011.0
16 18:53 NW 13 10.00 A Few Clouds FEW120 FEW200 97 59 28% 97 29.86 1010.5
16 17:53 NW 10 10.00 A Few Clouds FEW060 FEW130 FEW200 100 57 24% 99 29.85 1010.3
16 16:53 NW 6 10.00 A Few Clouds FEW060 FEW130 100 54 100.9 82 21% 98 29.86 1010.7
16 15:53 W 6 10.00 A Few Clouds FEW050 FEW090 99 54 22% 97 29.88 1011.2
16 14:53 N 7 10.00 A Few Clouds FEW050 98.1 55 24% 96 29.9 1011.9
16 13:53 NW 7 10.00 A Few Clouds FEW050 96.1 55 25% 94 29.92 1012.9
16 12:53 N 6 10.00 A Few Clouds FEW050 91 55 30% 89 29.94 1013.5
16 11:53 SW 5 10.00 A Few Clouds FEW050 86 55 35% 84 29.96 1014.1
16 10:53 Calm 10.00 A Few Clouds FEW050 FEW110 82 55.9 82.9 70 41% 82 29.96 1014.2
16 09:53 NW 7 10.00 A Few Clouds FEW110 79 55 44% 80 29.96 1014.1
16 08:53 NW 9 10.00 A Few Clouds FEW110 75 54 48% 78 29.96 1014.1
16 07:53 W 6 10.00 A Few Clouds FEW110 71.1 55 57% 29.96 1013.9
16 06:53 NW 9 10.00 A Few Clouds FEW090 FEW110 FEW170 70 55 59% 29.94 1013.5
16 05:53 NW 10 10.00 A Few Clouds FEW080 FEW110 FEW160 71.1 55 57% 29.92 1012.8
16 04:53 NW 9 10.00 A Few Clouds FEW080 FEW160 72 55 86 72 55% 29.91 1012.3
16 03:53 NW 9 10.00 A Few Clouds FEW130 FEW200 73 55 53% 29.89 1011.8
16 02:53 NW 10 10.00 A Few Clouds FEW130 FEW200 75 55 50% 78 29.9 1011.9
16 01:53 NW 9 10.00 A Few Clouds FEW200 78.1 57 48% 79 29.89 1011.8
16 00:53 NW 10 10.00 A Few Clouds FEW200 80.1 57.9 47% 81 29.9 1011.9
15 23:53 NW 14 10.00 A Few Clouds FEW200 82.9 57.9 43% 83 29.9 1011.9
15 22:53 NW 13 10.00 Fair CLR 86 60.1 102.9 86 42% 86 29.89 1011.6
15 21:53 NW 12 10.00 Fair CLR 90 59 35% 89 29.88 1011.4
15 20:53 NW 10 10.00 A Few Clouds FEW080 FEW200 93 54 27% 91 29.86 1010.8
15 19:53 NW 10 10.00 Partly Cloudy FEW100 SCT150 SCT200 97 55 24% 95 29.85 1010.4
15 18:53 NW 12 10.00 Partly Cloudy FEW080 FEW120 SCT200 100 54 21% 98 29.84 1010.1
15 17:53 NW 12 10.00 Partly Cloudy FEW080 SCT120 SCT200 102 53.1 19% 100 29.85 1010.3
15 16:53 NW 9 10.00 Partly Cloudy FEW080 SCT120 SCT200 102 52 102 87.1 19% 100 29.87 1010.8
15 15:53 NW 7 10.00 Partly Cloudy SCT080 SCT120 SCT200 100 50 18% 97 29.89 1011.6
15 14:53 W 8 10.00 A Few Clouds FEW080 FEW120 FEW200 100 54 21% 98 29.91 1012.4
Date Time (pdt) Wind (mph) Vis. (mi.) Weather Sky Cond. Air Dwpt Max. Min. Relative Humidity Wind Chill (°F) Heat Index (°F) altimeter (in) sea level (mb) 1 hr 3 hr 6 hr
6 hour
Temperature (ºF) Pressure Precipitation (in)